Location: Bonaustraße
(48.4603°N, 11.9280°E)
Time: 21:13:52
(UTC+02:00)

AO-92 - Pass Details

Date: 29 July 2021
Orbit: 484 x 494 km, 97.4° (Epoch: 17 September)

Event Time Altitude Azimuth Distance (km) Brightness Sun altitude
Exits shadow 00:22:20 11° 254° (WSW) 1,618 ? -21.6°
Maximum altitude 00:23:21 12° 271° (W) 1,559 ? -21.6°
Drops below altitude 10° 00:24:44 10° 294° (WNW) 1,673 ? -21.7°
Sets 00:28:02 0° 327° (NNW) 2,561 ? -21.8°
